Time,TemperatureF,DewpointF,PressureIn,WindDirection,WindDirectionDegrees,WindSpeedMPH,WindSpeedGustMPH,Humidity,HourlyPrecipIn,Conditions,Clouds,dailyrainin,SolarRadiationWatts/m^2,SoftwareType,DateUTC
2013-06-19 00:01:00,79.5,66.3,30.01,East,101,5.0,5.0,64,0.00,CLR,FEW,0.00,0.0,WeatherDisplay:10.37,2013-06-18 22:01:00,
2013-06-19 00:06:00,79.9,65.2,30.01,ESE,105,5.8,5.8,61,0.00,CLR,FEW,0.00,0.0,WeatherDisplay:10.37,2013-06-18 22:06:00,
2013-06-19 00:11:00,79.9,64.8,30.01,ESE,105,2.3,2.3,60,0.00,CLR,FEW,0.00,0.0,WeatherDisplay:10.37,2013-06-18 22:11:00,
2013-06-19 00:16:00,79.6,64.5,30.01,ESE,105,4.0,4.0,60,0.00,CLR,FEW,0.00,0.0,WeatherDisplay:10.37,2013-06-18 22:16:00,
2013-06-19 00:21:00,79.6,64.5,30.01,ESE,105,2.0,2.0,60,0.00,CLR,FEW,0.00,0.0,WeatherDisplay:10.37,2013-06-18 22:21:00,
2013-06-19 00:26:00,78.6,64.0,30.01,ESE,105,0.0,0.0,61,0.00,CLR,FEW,0.00,0.0,WeatherDisplay:10.37,2013-06-18 22:26:00,
2013-06-19 00:31:00,78.0,63.5,30.01,ESE,105,0.0,0.0,61,0.00,CLR,FEW,0.00,0.0,WeatherDisplay:10.37,2013-06-18 22:31:00,
2013-06-19 00:36:00,77.7,63.6,30.01,ESE,105,0.0,0.0,62,0.00,CLR,FEW,0.00,0.0,WeatherDisplay:10.37,2013-06-18 22:36:00,
2013-06-19 00:41:00,77.1,63.5,30.01,ESE,105,1.2,1.2,63,0.00,CLR,FEW,0.00,0.0,WeatherDisplay:10.37,2013-06-18 22:41:00,
2013-06-19 00:46:00,76.7,64.0,30.01,ESE,105,3.5,3.5,65,0.00,CLR,FEW,0.00,0.0,WeatherDisplay:10.37,2013-06-18 22:46:00,
2013-06-19 00:51:00,76.7,64.0,30.01,ESE,106,2.0,2.0,65,0.00,CLR,FEW,0.00,0.0,WeatherDisplay:10.37,2013-06-18 22:51:00,
2013-06-19 00:56:00,76.1,65.2,30.01,ESE,107,1.0,0.0,69,0.00,CLR,FEW,0.00,0.0,WeatherDisplay:10.37,2013-06-18 22:56:00,
2013-06-19 01:01:00,75.7,65.2,30.01,ESE,107,2.3,2.3,70,0.00,CLR,FEW,0.00,0.0,WeatherDisplay:10.37,2013-06-18 23:01:00,
2013-06-19 01:06:00,75.1,65.1,30.01,ESE,107,2.3,2.3,71,0.00,CLR,FEW,0.00,0.0,WeatherDisplay:10.37,2013-06-18 23:06:00,
2013-06-19 01:11:00,74.9,64.9,30.01,ESE,107,4.0,4.0,71,0.00,CLR,FEW,0.00,0.0,WeatherDisplay:10.37,2013-06-18 23:11:00,
2013-06-19 01:16:00,75.4,64.9,30.01,ESE,106,3.5,3.5,70,0.00,CLR,FEW,0.00,0.0,WeatherDisplay:10.37,2013-06-18 23:16:00,
2013-06-19 01:21:00,76.0,65.1,30.01,ESE,107,4.6,4.6,69,0.00,CLR,FEW,0.00,0.0,WeatherDisplay:10.37,2013-06-18 23:21:00,
2013-06-19 01:26:00,76.5,65.6,30.01,ESE,107,3.5,3.5,69,0.00,CLR,FEW,0.00,0.0,WeatherDisplay:10.37,2013-06-18 23:26:00,
2013-06-19 01:31:00,76.7,65.3,30.01,ESE,107,2.3,2.3,68,0.00,CLR,FEW,0.00,0.0,WeatherDisplay:10.37,2013-06-18 23:31:00,
2013-06-19 01:36:00,76.8,65.4,30.00,ESE,107,3.5,3.5,68,0.00,CLR,FEW,0.00,0.0,WeatherDisplay:10.37,2013-06-18 23:36:00,
2013-06-19 01:41:00,76.9,64.7,30.00,ESE,107,4.0,4.0,66,0.00,CLR,FEW,0.00,0.0,WeatherDisplay:10.37,2013-06-18 23:41:00,
2013-06-19 01:46:00,77.2,64.1,30.00,ESE,107,4.0,4.0,64,0.00,CLR,FEW,0.00,0.0,WeatherDisplay:10.37,2013-06-18 23:46:00,
2013-06-19 01:51:00,77.2,63.2,30.00,ESE,107,3.5,3.5,62,0.00,CLR,FEW,0.00,0.0,WeatherDisplay:10.37,2013-06-18 23:51:00,
2013-06-19 01:56:00,77.6,62.1,30.00,ESE,107,2.3,2.3,59,0.00,CLR,FEW,0.00,0.0,WeatherDisplay:10.37,2013-06-18 23:56:00,
2013-06-19 02:01:00,77.5,62.0,30.00,ESE,107,1.2,0.0,59,0.00,CLR,FEW,0.00,0.0,WeatherDisplay:10.37,2013-06-19 00:01:00,
2013-06-19 02:06:00,77.1,63.5,30.00,ESE,107,0.0,0.0,63,0.00,CLR,FEW,0.00,0.0,WeatherDisplay:10.37,2013-06-19 00:06:00,
2013-06-19 02:11:00,76.5,64.3,30.00,ESE,107,1.2,0.0,66,0.00,CLR,FEW,0.00,0.0,WeatherDisplay:10.37,2013-06-19 00:11:00,
2013-06-19 02:16:00,75.9,65.0,30.01,ESE,107,0.0,0.0,69,0.00,CLR,FEW,0.00,0.0,WeatherDisplay:10.37,2013-06-19 00:16:00,
2013-06-19 02:21:00,75.8,65.7,30.00,ESE,107,1.2,1.2,71,0.00,CLR,FEW,0.00,0.0,WeatherDisplay:10.37,2013-06-19 00:21:00,
2013-06-19 02:26:00,75.7,65.6,30.01,ESE,107,1.2,0.0,71,0.00,CLR,FEW,0.00,0.0,WeatherDisplay:10.37,2013-06-19 00:26:00,
2013-06-19 02:31:00,75.3,65.6,30.00,ESE,107,0.0,0.0,72,0.00,CLR,FEW,0.00,0.0,WeatherDisplay:10.37,2013-06-19 00:31:00,
2013-06-19 02:36:00,74.8,65.6,30.00,ESE,107,1.2,1.2,73,0.00,CLR,FEW,0.00,0.0,WeatherDisplay:10.37,2013-06-19 00:36:00,
2013-06-19 02:41:00,74.3,65.5,30.00,ESE,107,2.3,2.3,74,0.00,CLR,FEW,0.00,0.0,WeatherDisplay:10.37,2013-06-19 00:41:00,
2013-06-19 02:46:00,74.3,65.9,30.00,ESE,107,0.0,0.0,75,0.00,CLR,FEW,0.00,0.0,WeatherDisplay:10.37,2013-06-19 00:46:00,
2013-06-19 02:51:00,74.1,65.7,30.00,ESE,107,4.0,4.0,75,0.00,CLR,FEW,0.00,0.0,WeatherDisplay:10.37,2013-06-19 00:51:00,
2013-06-19 02:56:00,74.2,65.8,30.01,ESE,107,2.3,2.3,75,0.00,CLR,FEW,0.00,0.0,WeatherDisplay:10.37,2013-06-19 00:56:00,
2013-06-19 03:01:00,74.2,65.8,30.01,ESE,107,3.5,3.5,75,0.00,CLR,FEW,0.00,0.0,WeatherDisplay:10.37,2013-06-19 01:01:00,
2013-06-19 03:06:00,74.3,65.9,30.00,ESE,107,3.5,3.5,75,0.00,CLR,FEW,0.00,0.0,WeatherDisplay:10.37,2013-06-19 01:06:00,
2013-06-19 03:11:00,74.7,65.9,30.00,ESE,107,2.3,2.3,74,0.00,CLR,FEW,0.00,0.0,WeatherDisplay:10.37,2013-06-19 01:11:00,
2013-06-19 03:16:00,75.0,65.4,30.00,ESE,107,3.5,3.5,72,0.00,CLR,FEW,0.00,0.0,WeatherDisplay:10.37,2013-06-19 01:16:00,
2013-06-19 03:21:00,74.8,64.4,30.00,ESE,107,3.5,3.5,70,0.00,CLR,FEW,0.00,0.0,WeatherDisplay:10.37,2013-06-19 01:21:00,
2013-06-19 03:26:00,74.4,64.0,30.00,ESE,107,2.3,2.3,70,0.00,CLR,FEW,0.00,0.0,WeatherDisplay:10.37,2013-06-19 01:26:00,
2013-06-19 03:31:00,74.5,63.7,30.00,ESE,107,4.0,4.0,69,0.00,CLR,FEW,0.00,0.0,WeatherDisplay:10.37,2013-06-19 01:31:00,
2013-06-19 03:36:00,75.2,63.9,30.00,ESE,107,3.5,3.5,68,0.00,CLR,FEW,0.00,0.0,WeatherDisplay:10.37,2013-06-19 01:36:00,
2013-06-19 03:41:00,76.2,64.4,30.00,ESE,107,4.0,4.0,67,0.00,CLR,FEW,0.00,0.0,WeatherDisplay:10.37,2013-06-19 01:41:00,
2013-06-19 03:46:00,76.4,63.8,30.00,ESE,107,3.5,3.5,65,0.00,CLR,FEW,0.00,0.0,WeatherDisplay:10.37,2013-06-19 01:46:00,
2013-06-19 03:51:00,76.2,62.2,30.00,ESE,107,1.2,0.0,62,0.00,CLR,FEW,0.00,0.0,WeatherDisplay:10.37,2013-06-19 01:51:00,
2013-06-19 03:56:00,76.8,61.4,30.00,ESE,107,3.5,3.5,59,0.00,CLR,FEW,0.00,0.0,WeatherDisplay:10.37,2013-06-19 01:56:00,
2013-06-19 04:01:00,77.7,61.7,30.00,ESE,107,3.5,3.5,58,0.00,CLR,FEW,0.00,0.0,WeatherDisplay:10.37,2013-06-19 02:01:00,
2013-06-19 04:06:00,79.0,61.5,30.00,ESE,109,3.5,3.6,55,0.00,CLR,FEW,0.00,0.0,WeatherDisplay:10.37,2013-06-19 02:06:00,
2013-06-19 04:11:00,79.1,61.5,30.00,ESE,109,4.6,4.6,55,0.00,CLR,FEW,0.00,0.0,WeatherDisplay:10.37,2013-06-19 02:11:00,
2013-06-19 04:16:00,79.1,61.5,30.00,ESE,109,3.5,3.5,55,0.00,CLR,FEW,0.00,0.0,WeatherDisplay:10.37,2013-06-19 02:16:00,
2013-06-19 04:21:00,79.1,62.1,30.00,ESE,112,5.0,5.0,56,0.00,CLR,FEW,0.00,0.0,WeatherDisplay:10.37,2013-06-19 02:21:00,
2013-06-19 04:26:00,79.1,62.1,30.00,ESE,115,4.6,4.6,56,0.00,CLR,FEW,0.00,0.0,WeatherDisplay:10.37,2013-06-19 02:26:00,
2013-06-19 04:31:00,79.0,62.0,30.00,ESE,117,4.6,4.6,56,0.00,CLR,FEW,0.00,0.0,WeatherDisplay:10.37,2013-06-19 02:31:00,
2013-06-19 04:36:00,79.2,62.1,30.00,ESE,117,4.0,4.0,56,0.00,CLR,FEW,0.00,0.0,WeatherDisplay:10.37,2013-06-19 02:36:00,
2013-06-19 04:42:00,79.2,62.1,30.00,ESE,117,2.3,2.3,56,0.00,CLR,FEW,0.00,0.0,WeatherDisplay:10.37,2013-06-19 02:42:00,
2013-06-19 04:47:00,78.9,62.4,30.00,ESE,117,4.0,4.0,57,0.00,CLR,FEW,0.00,0.0,WeatherDisplay:10.37,2013-06-19 02:47:00,
2013-06-19 04:52:00,78.7,62.2,30.00,ESE,117,3.5,3.5,57,0.00,CLR,FEW,0.00,0.0,WeatherDisplay:10.37,2013-06-19 02:52:00,
2013-06-19 04:57:00,78.3,62.3,30.00,ESE,117,3.5,3.5,58,0.00,CLR,FEW,0.00,0.0,WeatherDisplay:10.37,2013-06-19 02:57:00,
2013-06-19 05:02:00,77.8,62.3,30.00,ESE,117,5.0,5.0,59,0.00,OVC,FEW,0.00,0.0,WeatherDisplay:10.37,2013-06-19 03:02:00,
2013-06-19 05:07:00,77.6,62.1,30.00,ESE,117,4.6,4.6,59,0.00,OVC,FEW,0.00,0.0,WeatherDisplay:10.37,2013-06-19 03:07:00,
2013-06-19 05:12:00,78.0,62.5,30.01,ESE,117,4.6,4.6,59,0.00,OVC,FEW,0.00,0.0,WeatherDisplay:10.37,2013-06-19 03:12:00,
2013-06-19 05:17:00,78.3,62.8,30.01,ESE,117,4.0,4.0,59,0.00,OVC,FEW,0.00,0.0,WeatherDisplay:10.37,2013-06-19 03:17:00,
2013-06-19 05:22:00,77.9,62.4,30.01,ESE,117,3.5,3.5,59,0.00,OVC,FEW,0.00,0.0,WeatherDisplay:10.37,2013-06-19 03:22:00,
2013-06-19 05:27:00,78.0,62.5,30.01,ESE,117,3.5,3.5,59,0.00,OVC,FEW,0.00,0.0,WeatherDisplay:10.37,2013-06-19 03:27:00,
2013-06-19 05:32:00,77.3,62.3,30.01,ESE,117,2.3,2.3,60,0.00,OVC,FEW,0.00,0.0,WeatherDisplay:10.37,2013-06-19 03:32:00,
2013-06-19 05:37:00,76.2,62.7,30.01,ESE,117,1.2,1.2,63,0.00,OVC,FEW,0.00,0.0,WeatherDisplay:10.37,2013-06-19 03:37:00,
2013-06-19 05:42:00,75.6,63.0,30.01,ESE,117,1.2,1.2,65,0.00,OVC,FEW,0.00,0.0,WeatherDisplay:10.37,2013-06-19 03:42:00,
2013-06-19 05:47:00,75.1,63.4,30.01,ESE,118,4.0,4.0,67,0.00,OVC,FEW,0.00,0.0,WeatherDisplay:10.37,2013-06-19 03:47:00,
2013-06-19 05:52:00,75.2,63.9,30.01,South,180,3.5,3.5,68,0.00,OVC,FEW,0.00,0.0,WeatherDisplay:10.37,2013-06-19 03:52:00,
2013-06-19 05:57:00,75.2,63.5,30.01,South,180,3.5,3.5,67,0.00,OVC,FEW,0.00,0.0,WeatherDisplay:10.37,2013-06-19 03:57:00,
2013-06-19 06:01:00,76.1,63.5,30.01,South,178,5.0,5.0,65,0.00,OVC,FEW,0.00,0.0,WeatherDisplay:10.37,2013-06-19 04:01:00,
2013-06-19 06:06:00,77.0,63.9,30.01,South,175,4.6,4.6,64,0.00,OVC,FEW,0.00,0.0,WeatherDisplay:10.37,2013-06-19 04:06:00,
2013-06-19 06:11:00,77.7,64.1,30.01,SSW,193,3.0,3.0,63,0.00,OVC,FEW,0.00,0.0,WeatherDisplay:10.37,2013-06-19 04:11:00,
2013-06-19 06:16:00,76.9,64.7,30.01,SSW,193,1.2,1.2,66,0.00,OVC,FEW,0.00,0.0,WeatherDisplay:10.37,2013-06-19 04:16:00,
2013-06-19 06:21:00,76.0,64.7,30.01,SSW,193,0.0,0.0,68,0.00,OVC,FEW,0.00,0.0,WeatherDisplay:10.37,2013-06-19 04:21:00,
2013-06-19 06:26:00,75.7,64.8,30.01,SSW,193,0.0,0.0,69,0.00,OVC,FEW,0.00,0.0,WeatherDisplay:10.37,2013-06-19 04:26:00,
2013-06-19 06:31:00,75.8,65.3,30.01,SSW,193,0.0,0.0,70,0.00,OVC,FEW,0.00,0.0,WeatherDisplay:10.37,2013-06-19 04:31:00,
2013-06-19 06:36:00,76.1,65.6,30.01,SSW,193,0.0,0.0,70,0.00,OVC,FEW,0.00,0.0,WeatherDisplay:10.37,2013-06-19 04:36:00,
2013-06-19 06:41:00,76.3,65.8,30.01,SSW,193,0.0,0.0,70,0.00,OVC,FEW,0.00,0.0,WeatherDisplay:10.37,2013-06-19 04:41:00,
2013-06-19 06:46:00,76.9,65.1,30.01,SSW,193,0.0,0.0,67,0.00,OVC,FEW,0.00,0.0,WeatherDisplay:10.37,2013-06-19 04:46:00,
2013-06-19 06:51:00,78.2,65.9,30.01,SSW,193,1.0,1.0,66,0.00,OVC,FEW,0.00,0.0,WeatherDisplay:10.37,2013-06-19 04:51:00,
2013-06-19 06:56:00,78.1,66.2,30.01,SSW,193,1.2,1.2,67,0.00,OVC,FEW,0.00,0.0,WeatherDisplay:10.37,2013-06-19 04:56:00,
2013-06-19 07:01:00,78.1,66.2,30.02,SSW,193,1.0,0.0,67,0.00,OVC,FEW,0.00,0.0,WeatherDisplay:10.37,2013-06-19 05:01:00,
2013-06-19 07:06:00,78.0,66.6,30.02,SSW,193,1.2,1.2,68,0.00,OVC,FEW,0.00,0.0,WeatherDisplay:10.37,2013-06-19 05:06:00,
2013-06-19 07:11:00,77.4,66.0,30.02,SSW,193,3.5,3.5,68,0.00,OVC,FEW,0.00,0.0,WeatherDisplay:10.37,2013-06-19 05:11:00,
2013-06-19 07:16:00,77.6,65.8,30.02,SSW,204,5.0,5.0,67,0.00,OVC,FEW,0.00,0.0,WeatherDisplay:10.37,2013-06-19 05:16:00,
2013-06-19 07:21:00,78.2,66.3,30.02,SSW,209,3.5,3.5,67,0.00,OVC,FEW,0.00,0.0,WeatherDisplay:10.37,2013-06-19 05:21:00,
2013-06-19 07:26:00,78.7,67.7,30.02,SSW,209,2.3,2.3,69,0.00,OVC,FEW,0.00,0.0,WeatherDisplay:10.37,2013-06-19 05:26:00,
2013-06-19 07:31:00,79.2,67.3,30.02,SSW,209,1.2,1.2,67,0.00,OVC,FEW,0.00,0.0,WeatherDisplay:10.37,2013-06-19 05:31:00,
2013-06-19 07:36:00,79.8,68.7,30.02,SSW,209,0.0,0.0,69,0.00,OVC,FEW,0.00,0.0,WeatherDisplay:10.37,2013-06-19 05:36:00,
2013-06-19 07:41:00,79.6,69.0,30.02,SSW,209,1.2,1.2,70,0.00,OVC,FEW,0.00,0.0,WeatherDisplay:10.37,2013-06-19 05:41:00,
2013-06-19 07:46:00,79.1,68.5,30.02,SSW,209,0.0,0.0,70,0.00,OVC,FEW,0.00,0.0,WeatherDisplay:10.37,2013-06-19 05:46:00,
2013-06-19 07:51:00,79.3,68.7,30.02,SSW,209,0.0,0.0,70,0.00,OVC,FEW,0.00,0.0,WeatherDisplay:10.37,2013-06-19 05:51:00,
2013-06-19 07:56:00,79.9,69.2,30.02,SSW,209,0.0,0.0,70,0.00,OVC,FEW,0.00,0.0,WeatherDisplay:10.37,2013-06-19 05:56:00,
2013-06-19 08:01:00,80.5,69.8,30.02,SSW,209,2.3,2.3,70,0.00,OVC,FEW,0.00,0.0,WeatherDisplay:10.37,2013-06-19 06:01:00,
2013-06-19 08:06:00,80.6,69.9,30.03,SSW,209,0.0,0.0,70,0.00,OVC,FEW,0.00,0.0,WeatherDisplay:10.37,2013-06-19 06:06:00,
2013-06-19 08:11:00,79.9,69.2,30.03,SSW,209,1.2,1.2,70,0.00,OVC,FEW,0.00,0.0,WeatherDisplay:10.37,2013-06-19 06:11:00,
2013-06-19 08:16:00,79.5,69.3,30.03,SSW,209,1.2,1.2,71,0.00,OVC,FEW,0.00,0.0,WeatherDisplay:10.37,2013-06-19 06:16:00,
2013-06-19 08:21:00,79.7,69.9,30.03,SSW,209,1.2,1.2,72,0.00,OVC,FEW,0.00,0.0,WeatherDisplay:10.37,2013-06-19 06:21:00,
2013-06-19 08:26:00,80.1,69.8,30.03,SSW,209,1.2,1.2,71,0.00,OVC,FEW,0.00,0.0,WeatherDisplay:10.37,2013-06-19 06:26:00,
2013-06-19 08:31:00,80.0,69.7,30.03,SSW,209,1.2,1.2,71,0.00,OVC,FEW,0.00,0.0,WeatherDisplay:10.37,2013-06-19 06:31:00,
2013-06-19 08:36:00,80.1,69.8,30.03,SSW,209,2.3,2.3,71,0.00,OVC,FEW,0.00,0.0,WeatherDisplay:10.37,2013-06-19 06:36:00,
2013-06-19 08:41:00,80.2,69.9,30.03,SW,226,3.5,3.5,71,0.00,OVC,FEW,0.00,0.0,WeatherDisplay:10.37,2013-06-19 06:41:00,
2013-06-19 08:46:00,79.8,69.6,30.03,SW,226,2.3,2.3,71,0.00,OVC,FEW,0.00,0.0,WeatherDisplay:10.37,2013-06-19 06:46:00,
2013-06-19 08:51:00,80.0,69.7,30.03,SW,226,2.3,2.3,71,0.00,OVC,FEW,0.00,0.0,WeatherDisplay:10.37,2013-06-19 06:51:00,
2013-06-19 08:56:00,80.1,70.7,30.03,SW,226,1.2,1.2,73,0.00,OVC,FEW,0.00,0.0,WeatherDisplay:10.37,2013-06-19 06:56:00,
2013-06-19 09:01:00,80.8,70.5,30.03,SW,226,3.0,3.0,71,0.00,OVC,FEW,0.00,0.0,WeatherDisplay:10.37,2013-06-19 07:01:00,
2013-06-19 09:06:00,80.4,70.1,30.03,SW,228,2.3,2.3,71,0.00,OVC,FEW,0.00,0.0,WeatherDisplay:10.37,2013-06-19 07:06:00,
2013-06-19 09:11:00,80.1,69.4,30.03,SW,227,1.2,1.2,70,0.00,OVC,FEW,0.00,0.0,WeatherDisplay:10.37,2013-06-19 07:11:00,
2013-06-19 09:16:00,80.3,69.6,30.03,SW,227,2.3,2.3,70,0.00,OVC,FEW,0.00,0.0,WeatherDisplay:10.37,2013-06-19 07:16:00,
2013-06-19 09:21:00,81.4,70.7,30.03,SW,228,2.0,2.0,70,0.00,OVC,FEW,0.00,0.0,WeatherDisplay:10.37,2013-06-19 07:21:00,
2013-06-19 09:26:00,81.2,70.5,30.04,SW,228,2.3,2.3,70,0.00,OVC,FEW,0.00,0.0,WeatherDisplay:10.37,2013-06-19 07:26:00,
2013-06-19 09:31:00,81.0,69.9,30.03,SW,228,1.2,1.2,69,0.00,OVC,FEW,0.00,0.0,WeatherDisplay:10.37,2013-06-19 07:31:00,
2013-06-19 09:36:00,80.9,69.8,30.04,SW,228,1.2,1.2,69,0.00,OVC,FEW,0.00,0.0,WeatherDisplay:10.37,2013-06-19 07:36:00,
2013-06-19 09:41:00,81.3,70.2,30.03,SW,228,2.3,2.3,69,0.00,OVC,FEW,0.00,0.0,WeatherDisplay:10.37,2013-06-19 07:41:00,
2013-06-19 09:46:00,81.6,70.0,30.04,SW,225,2.3,2.3,68,0.00,OVC,FEW,0.00,0.0,WeatherDisplay:10.37,2013-06-19 07:46:00,
2013-06-19 09:51:00,81.2,69.2,30.04,SW,236,3.5,3.5,67,0.00,OVC,FEW,0.00,0.0,WeatherDisplay:10.37,2013-06-19 07:51:00,
2013-06-19 09:56:00,81.4,69.8,30.04,WSW,239,2.3,2.3,68,0.00,OVC,FEW,0.00,0.0,WeatherDisplay:10.37,2013-06-19 07:56:00,
2013-06-19 10:01:00,81.4,69.8,30.04,WNW,291,3.5,3.5,68,0.00,OVC,FEW,0.00,0.0,WeatherDisplay:10.37,2013-06-19 08:01:00,
2013-06-19 10:06:00,81.1,70.0,30.04,WNW,293,3.5,3.5,69,0.00,OVC,FEW,0.00,0.0,WeatherDisplay:10.37,2013-06-19 08:06:00,
2013-06-19 10:11:00,81.7,70.5,30.03,NW,306,3.5,3.5,69,0.00,OVC,FEW,0.00,0.0,WeatherDisplay:10.37,2013-06-19 08:11:00,
2013-06-19 10:16:00,82.2,70.1,30.04,North,355,3.5,3.5,67,0.00,OVC,FEW,0.00,0.0,WeatherDisplay:10.37,2013-06-19 08:16:00,
2013-06-19 10:21:00,82.7,71.1,30.04,NNE,13,3.5,3.5,68,0.00,OVC,FEW,0.00,0.0,WeatherDisplay:10.37,2013-06-19 08:21:00,
2013-06-19 10:26:00,82.2,70.1,30.03,NNE,22,4.6,4.6,67,0.00,OVC,FEW,0.00,0.0,WeatherDisplay:10.37,2013-06-19 08:26:00,
2013-06-19 10:31:00,82.5,70.9,30.04,NNE,21,3.5,3.5,68,0.00,OVC,FEW,0.00,0.0,WeatherDisplay:10.37,2013-06-19 08:31:00,
2013-06-19 10:36:00,82.7,70.6,30.03,NNE,21,3.5,3.5,67,0.00,OVC,FEW,0.00,0.0,WeatherDisplay:10.37,2013-06-19 08:36:00,
2013-06-19 10:41:00,82.5,70.4,30.03,NNE,23,4.6,4.6,67,0.00,OVC,FEW,0.00,0.0,WeatherDisplay:10.37,2013-06-19 08:41:00,
2013-06-19 10:46:00,83.0,70.9,30.03,NNE,23,2.3,2.3,67,0.00,OVC,FEW,0.00,0.0,WeatherDisplay:10.37,2013-06-19 08:46:00,
2013-06-19 10:51:00,83.1,70.6,30.03,NNE,19,2.3,2.3,66,0.00,OVC,FEW,0.00,0.0,WeatherDisplay:10.37,2013-06-19 08:51:00,
2013-06-19 10:56:00,82.9,69.9,30.03,NNE,18,2.3,2.3,65,0.00,OVC,FEW,0.00,0.0,WeatherDisplay:10.37,2013-06-19 08:56:00,
2013-06-19 11:01:00,83.2,69.8,30.03,NNE,19,3.5,3.5,64,0.00,OVC,FEW,0.00,0.0,WeatherDisplay:10.37,2013-06-19 09:01:00,
2013-06-19 11:06:00,83.1,70.1,30.04,NNE,18,3.5,3.5,65,0.00,OVC,FEW,0.00,0.0,WeatherDisplay:10.37,2013-06-19 09:06:00,
2013-06-19 11:11:00,84.3,70.3,30.04,NNE,18,3.5,3.5,63,0.00,OVC,FEW,0.00,0.0,WeatherDisplay:10.37,2013-06-19 09:11:00,
2013-06-19 11:16:00,84.6,71.1,30.04,NNE,18,3.5,3.5,64,0.00,OVC,FEW,0.00,0.0,WeatherDisplay:10.37,2013-06-19 09:16:00,
2013-06-19 11:21:00,83.8,70.8,30.04,NNE,18,2.3,2.3,65,0.00,OVC,FEW,0.00,0.0,WeatherDisplay:10.37,2013-06-19 09:21:00,
2013-06-19 11:26:00,84.2,71.6,30.03,NNE,22,3.5,3.5,66,0.00,OVC,FEW,0.00,0.0,WeatherDisplay:10.37,2013-06-19 09:26:00,
2013-06-19 11:31:00,84.7,71.6,30.03,NNE,18,3.5,3.5,65,0.00,OVC,FEW,0.00,0.0,WeatherDisplay:10.37,2013-06-19 09:31:00,
2013-06-19 11:36:00,84.8,71.3,30.04,NNE,18,3.5,3.5,64,0.00,OVC,FEW,0.00,0.0,WeatherDisplay:10.37,2013-06-19 09:36:00,
2013-06-19 11:41:00,84.4,70.9,30.04,NNE,17,3.5,3.5,64,0.00,OVC,FEW,0.00,0.0,WeatherDisplay:10.37,2013-06-19 09:41:00,
2013-06-19 11:46:00,84.6,70.1,30.04,NNE,16,3.5,3.5,62,0.00,OVC,FEW,0.00,0.0,WeatherDisplay:10.37,2013-06-19 09:46:00,
2013-06-19 11:51:00,83.7,69.3,30.04,NNE,13,3.0,3.0,62,0.00,OVC,FEW,0.00,0.0,WeatherDisplay:10.37,2013-06-19 09:51:00,
2013-06-19 11:56:00,83.8,69.9,30.04,NNE,13,3.5,3.5,63,0.00,OVC,FEW,0.00,0.0,WeatherDisplay:10.37,2013-06-19 09:56:00,
2013-06-19 12:01:00,84.0,70.0,30.04,NNE,13,3.5,3.5,63,0.00,OVC,FEW,0.00,0.0,WeatherDisplay:10.37,2013-06-19 10:01:00,
2013-06-19 12:06:00,84.7,70.2,30.04,North,5,3.5,3.5,62,0.00,OVC,FEW,0.00,0.0,WeatherDisplay:10.37,2013-06-19 10:06:00,
2013-06-19 12:11:00,85.1,69.7,30.04,North,360,3.5,3.5,60,0.00,OVC,FEW,0.00,0.0,WeatherDisplay:10.37,2013-06-19 10:11:00,
2013-06-19 12:16:00,83.9,69.5,30.04,WNW,282,3.5,3.5,62,0.00,OVC,FEW,0.00,0.0,WeatherDisplay:10.37,2013-06-19 10:16:00,
2013-06-19 12:21:00,84.3,69.4,30.04,WNW,294,3.5,3.5,61,0.00,OVC,FEW,0.00,0.0,WeatherDisplay:10.37,2013-06-19 10:21:00,
2013-06-19 12:26:00,85.8,68.8,30.04,WNW,290,3.5,3.5,57,0.00,OVC,FEW,0.00,0.0,WeatherDisplay:10.37,2013-06-19 10:26:00,
2013-06-19 12:31:00,85.6,66.5,30.04,WNW,289,3.5,3.5,53,0.00,OVC,FEW,0.00,0.0,WeatherDisplay:10.37,2013-06-19 10:31:00,
2013-06-19 12:36:00,85.5,64.2,30.04,WNW,286,4.6,4.6,49,0.00,OVC,FEW,0.00,0.0,WeatherDisplay:10.37,2013-06-19 10:36:00,
2013-06-19 12:41:00,85.3,63.4,30.04,WNW,283,4.6,4.6,48,0.00,OVC,FEW,0.00,0.0,WeatherDisplay:10.37,2013-06-19 10:41:00,
2013-06-19 12:46:00,85.5,63.6,30.04,WSW,252,5.8,5.8,48,0.00,OVC,FEW,0.00,0.0,WeatherDisplay:10.37,2013-06-19 10:46:00,
2013-06-19 12:51:00,85.3,65.7,30.03,WSW,257,3.5,3.5,52,0.00,OVC,FEW,0.00,0.0,WeatherDisplay:10.37,2013-06-19 10:51:00,
2013-06-19 12:56:00,85.5,66.4,30.03,West,275,4.6,4.6,53,0.00,OVC,FEW,0.00,0.0,WeatherDisplay:10.37,2013-06-19 10:56:00,
2013-06-19 13:01:00,85.6,66.5,30.03,West,269,3.5,3.5,53,0.00,OVC,FEW,0.00,0.0,WeatherDisplay:10.37,2013-06-19 11:01:00,
2013-06-19 13:06:00,85.5,67.5,30.03,West,269,4.6,4.6,55,0.00,OVC,FEW,0.00,0.0,WeatherDisplay:10.37,2013-06-19 11:06:00,
2013-06-19 13:11:00,85.9,67.9,30.03,West,265,5.8,5.8,55,0.00,OVC,FEW,0.00,0.0,WeatherDisplay:10.37,2013-06-19 11:11:00,
2013-06-19 13:16:00,85.8,67.2,30.03,West,265,4.6,4.6,54,0.00,OVC,FEW,0.00,0.0,WeatherDisplay:10.37,2013-06-19 11:16:00,
2013-06-19 13:21:00,86.4,68.3,30.03,West,265,5.0,5.0,55,0.00,OVC,FEW,0.00,0.0,WeatherDisplay:10.37,2013-06-19 11:21:00,
2013-06-19 13:26:00,86.2,68.1,30.03,West,264,5.8,5.8,55,0.00,OVC,FEW,0.00,0.0,WeatherDisplay:10.37,2013-06-19 11:26:00,
2013-06-19 13:31:00,86.8,68.7,30.03,West,269,4.6,4.6,55,0.00,OVC,FEW,0.00,0.0,WeatherDisplay:10.37,2013-06-19 11:31:00,
2013-06-19 13:36:00,86.4,66.7,30.03,WSW,254,4.6,4.6,52,0.00,OVC,FEW,0.00,0.0,WeatherDisplay:10.37,2013-06-19 11:36:00,
2013-06-19 13:41:00,86.6,68.0,30.03,SW,236,3.5,3.5,54,0.00,OVC,FEW,0.00,0.0,WeatherDisplay:10.37,2013-06-19 11:41:00,
2013-06-19 13:46:00,86.1,68.0,30.03,West,261,5.8,5.8,55,0.00,OVC,FEW,0.00,0.0,WeatherDisplay:10.37,2013-06-19 11:46:00,
2013-06-19 13:51:00,86.4,67.8,30.02,WSW,258,4.6,4.6,54,0.00,OVC,FEW,0.00,0.0,WeatherDisplay:10.37,2013-06-19 11:51:00,
2013-06-19 13:56:00,86.5,69.5,30.02,West,273,5.8,5.8,57,0.00,OVC,FEW,0.00,0.0,WeatherDisplay:10.37,2013-06-19 11:56:00,
2013-06-19 14:01:00,86.4,68.8,30.02,West,262,5.8,5.8,56,0.00,OVC,FEW,0.00,0.0,WeatherDisplay:10.37,2013-06-19 12:01:00,
2013-06-19 14:06:00,86.1,67.0,30.02,West,259,5.8,5.8,53,0.00,OVC,FEW,0.00,0.0,WeatherDisplay:10.37,2013-06-19 12:06:00,
2013-06-19 14:11:00,85.5,68.0,30.02,SW,231,4.6,4.6,56,0.00,OVC,FEW,0.00,0.0,WeatherDisplay:10.37,2013-06-19 12:11:00,
2013-06-19 14:16:00,85.6,69.6,30.02,West,260,6.0,6.0,59,0.00,OVC,FEW,0.00,0.0,WeatherDisplay:10.37,2013-06-19 12:16:00,
2013-06-19 14:21:00,85.2,69.3,30.02,SW,227,8.1,8.1,59,0.00,OVC,FEW,0.00,0.0,WeatherDisplay:10.37,2013-06-19 12:21:00,
2013-06-19 14:26:00,85.1,68.7,30.02,WSW,258,8.1,8.1,58,0.00,OVC,FEW,0.00,0.0,WeatherDisplay:10.37,2013-06-19 12:26:00,
2013-06-19 14:31:00,86.1,68.6,30.02,WSW,258,5.8,5.8,56,0.00,OVC,FEW,0.00,0.0,WeatherDisplay:10.37,2013-06-19 12:31:00,
2013-06-19 14:36:00,86.7,67.0,30.01,West,265,3.5,3.5,52,0.00,OVC,FEW,0.00,0.0,WeatherDisplay:10.37,2013-06-19 12:36:00,
2013-06-19 14:42:00,87.1,67.3,30.01,West,263,3.5,3.5,52,0.00,OVC,FEW,0.00,0.0,WeatherDisplay:10.37,2013-06-19 12:42:00,
2013-06-19 14:47:00,87.7,65.0,30.01,SW,222,5.8,5.8,47,0.00,OVC,FEW,0.00,0.0,WeatherDisplay:10.37,2013-06-19 12:47:00,
2013-06-19 14:52:00,87.0,67.8,30.02,West,277,5.8,5.8,53,0.00,OVC,FEW,0.00,0.0,WeatherDisplay:10.37,2013-06-19 12:52:00,
2013-06-19 14:57:00,86.5,67.9,30.02,SW,228,4.6,4.6,54,0.00,OVC,FEW,0.00,0.0,WeatherDisplay:10.37,2013-06-19 12:57:00,
2013-06-19 15:02:00,86.7,68.1,30.01,WSW,252,3.5,3.5,54,0.00,OVC,FEW,0.00,0.0,WeatherDisplay:10.37,2013-06-19 13:02:00,
2013-06-19 15:07:00,86.7,65.8,30.01,West,261,3.5,3.5,50,0.00,OVC,FEW,0.00,0.0,WeatherDisplay:10.37,2013-06-19 13:07:00,
2013-06-19 15:12:00,87.3,70.2,30.01,NNE,17,3.5,3.5,57,0.00,OVC,FEW,0.00,0.0,WeatherDisplay:10.37,2013-06-19 13:12:00,
2013-06-19 15:17:00,87.3,71.7,30.01,NNE,17,3.5,3.5,60,0.00,OVC,FEW,0.00,0.0,WeatherDisplay:10.37,2013-06-19 13:17:00,
2013-06-19 15:22:00,85.7,71.7,30.01,NNE,13,3.5,3.5,63,0.00,OVC,FEW,0.00,0.0,WeatherDisplay:10.37,2013-06-19 13:22:00,
2013-06-19 15:27:00,85.9,72.8,30.01,NNE,13,3.5,3.5,65,0.00,OVC,FEW,0.00,0.0,WeatherDisplay:10.37,2013-06-19 13:27:00,
2013-06-19 15:32:00,85.1,72.9,30.01,NNE,12,3.0,3.0,67,0.00,OVC,FEW,0.00,0.0,WeatherDisplay:10.37,2013-06-19 13:32:00,
2013-06-19 15:37:00,86.6,72.5,30.01,North,5,3.5,3.5,63,0.00,OVC,FEW,0.00,0.0,WeatherDisplay:10.37,2013-06-19 13:37:00,
2013-06-19 15:42:00,86.9,72.3,30.00,North,5,3.5,3.5,62,0.00,OVC,FEW,0.00,0.0,WeatherDisplay:10.37,2013-06-19 13:42:00,
2013-06-19 15:47:00,87.1,70.5,30.00,North,5,3.5,3.5,58,0.00,OVC,FEW,0.00,0.0,WeatherDisplay:10.37,2013-06-19 13:47:00,
2013-06-19 15:52:00,87.7,68.4,30.00,North,5,2.3,2.3,53,0.00,OVC,FEW,0.00,0.0,WeatherDisplay:10.37,2013-06-19 13:52:00,
2013-06-19 15:57:00,87.3,67.5,30.00,North,5,3.5,3.5,52,0.00,OVC,FEW,0.00,0.0,WeatherDisplay:10.37,2013-06-19 13:57:00,
2013-06-19 16:02:00,87.5,66.6,30.00,North,5,3.5,3.5,50,0.00,OVC,FEW,0.00,0.0,WeatherDisplay:10.37,2013-06-19 14:02:00,
2013-06-19 16:07:00,88.4,66.2,30.00,North,5,2.0,2.0,48,0.00,OVC,FEW,0.00,0.0,WeatherDisplay:10.37,2013-06-19 14:07:00,
2013-06-19 16:12:00,88.5,66.9,30.00,North,5,3.5,3.5,49,0.00,OVC,FEW,0.00,0.0,WeatherDisplay:10.37,2013-06-19 14:12:00,
2013-06-19 16:17:00,88.6,65.8,30.00,North,5,2.3,2.3,47,0.00,OVC,FEW,0.00,0.0,WeatherDisplay:10.37,2013-06-19 14:17:00,
2013-06-19 16:22:00,89.6,67.9,30.00,North,5,3.5,3.5,49,0.00,OVC,FEW,0.00,0.0,WeatherDisplay:10.37,2013-06-19 14:22:00,
2013-06-19 16:27:00,89.4,67.7,30.00,North,5,2.3,2.3,49,0.00,OVC,FEW,0.00,0.0,WeatherDisplay:10.37,2013-06-19 14:27:00,
2013-06-19 16:32:00,88.3,60.2,30.00,North,5,3.5,3.5,39,0.00,OVC,FEW,0.00,0.0,WeatherDisplay:10.37,2013-06-19 14:32:00,
2013-06-19 16:37:00,89.3,61.1,30.00,North,5,2.3,2.3,39,0.00,OVC,FEW,0.00,0.0,WeatherDisplay:10.37,2013-06-19 14:37:00,
2013-06-19 16:42:00,88.7,64.0,30.00,West,269,4.6,4.6,44,0.00,OVC,FEW,0.00,0.0,WeatherDisplay:10.37,2013-06-19 14:42:00,
2013-06-19 16:47:00,88.0,63.4,30.00,West,269,3.5,3.5,44,0.00,OVC,FEW,0.00,0.0,WeatherDisplay:10.37,2013-06-19 14:47:00,
2013-06-19 16:52:00,88.2,63.5,30.00,West,278,4.0,4.0,44,0.00,OVC,FEW,0.00,0.0,WeatherDisplay:10.37,2013-06-19 14:52:00,
2013-06-19 16:57:00,87.8,65.7,30.00,West,272,3.5,3.5,48,0.00,OVC,FEW,0.00,0.0,WeatherDisplay:10.37,2013-06-19 14:57:00,
2013-06-19 17:02:00,86.2,68.7,30.00,West,261,4.6,4.6,56,0.00,OVC,FEW,0.00,0.0,WeatherDisplay:10.37,2013-06-19 15:02:00,
2013-06-19 17:07:00,85.4,66.3,30.00,WSW,253,4.6,4.6,53,0.00,OVC,FEW,0.00,0.0,WeatherDisplay:10.37,2013-06-19 15:07:00,
2013-06-19 17:12:00,83.7,69.8,30.00,West,275,5.8,5.8,63,0.00,OVC,FEW,0.00,0.0,WeatherDisplay:10.37,2013-06-19 15:12:00,
2013-06-19 17:17:00,82.5,69.1,30.00,SSW,195,6.9,6.9,64,0.00,OVC,FEW,0.00,0.0,WeatherDisplay:10.37,2013-06-19 15:17:00,
2013-06-19 17:22:00,82.6,68.7,30.00,WSW,237,4.6,4.6,63,0.00,OVC,FEW,0.00,0.0,WeatherDisplay:10.37,2013-06-19 15:22:00,
2013-06-19 17:27:00,83.0,69.6,30.00,WNW,285,5.8,5.8,64,0.00,OVC,FEW,0.00,0.0,WeatherDisplay:10.37,2013-06-19 15:27:00,
2013-06-19 17:32:00,82.4,69.9,30.00,SW,214,4.6,4.6,66,0.00,OVC,FEW,0.00,0.0,WeatherDisplay:10.37,2013-06-19 15:32:00,
2013-06-19 17:37:00,82.2,70.6,30.00,SW,229,6.9,6.9,68,0.00,OVC,FEW,0.00,0.0,WeatherDisplay:10.37,2013-06-19 15:37:00,
2013-06-19 17:42:00,81.8,70.2,30.00,SSW,209,4.6,4.6,68,0.00,OVC,FEW,0.00,0.0,WeatherDisplay:10.37,2013-06-19 15:42:00,
2013-06-19 17:47:00,82.4,69.0,30.00,SW,235,3.5,3.5,64,0.00,OVC,FEW,0.00,0.0,WeatherDisplay:10.37,2013-06-19 15:47:00,
2013-06-19 17:52:00,83.3,69.4,30.00,West,278,5.0,5.0,63,0.00,OVC,FEW,0.00,0.0,WeatherDisplay:10.37,2013-06-19 15:52:00,
2013-06-19 17:57:00,83.3,69.4,30.00,WSW,256,3.5,3.5,63,0.00,OVC,FEW,0.00,0.0,WeatherDisplay:10.37,2013-06-19 15:57:00,
2013-06-19 18:02:00,82.9,68.5,30.00,WSW,256,3.5,3.5,62,0.00,OVC,FEW,0.00,0.0,WeatherDisplay:10.37,2013-06-19 16:02:00,
2013-06-19 18:07:00,83.9,69.5,30.00,WSW,256,3.5,3.5,62,0.00,OVC,FEW,0.00,0.0,WeatherDisplay:10.37,2013-06-19 16:07:00,
2013-06-19 18:12:00,83.3,68.9,30.00,WSW,254,3.5,3.5,62,0.00,OVC,FEW,0.00,0.0,WeatherDisplay:10.37,2013-06-19 16:12:00,
2013-06-19 18:17:00,82.9,69.5,30.00,WSW,238,3.5,3.5,64,0.00,OVC,FEW,0.00,0.0,WeatherDisplay:10.37,2013-06-19 16:17:00,
2013-06-19 18:22:00,82.4,69.4,30.00,WSW,241,3.5,3.5,65,0.00,OVC,FEW,0.00,0.0,WeatherDisplay:10.37,2013-06-19 16:22:00,
2013-06-19 18:27:00,82.7,69.7,30.00,WSW,241,3.5,3.5,65,0.00,OVC,FEW,0.00,0.0,WeatherDisplay:10.37,2013-06-19 16:27:00,
2013-06-19 18:32:00,83.5,68.6,30.00,WSW,241,3.5,3.5,61,0.00,OVC,FEW,0.00,0.0,WeatherDisplay:10.37,2013-06-19 16:32:00,
2013-06-19 18:37:00,84.1,69.2,30.00,WSW,241,2.3,2.3,61,0.00,OVC,FEW,0.00,0.0,WeatherDisplay:10.37,2013-06-19 16:37:00,
2013-06-19 18:42:00,83.8,68.9,30.00,WSW,241,2.3,2.3,61,0.00,OVC,FEW,0.00,0.0,WeatherDisplay:10.37,2013-06-19 16:42:00,
2013-06-19 18:47:00,83.1,69.2,30.00,WNW,289,3.5,3.5,63,0.00,OVC,FEW,0.00,0.0,WeatherDisplay:10.37,2013-06-19 16:47:00,
2013-06-19 18:52:00,82.6,69.6,30.00,NNE,14,2.3,2.3,65,0.00,OVC,FEW,0.00,0.0,WeatherDisplay:10.37,2013-06-19 16:52:00,
2013-06-19 18:57:00,82.8,67.5,30.00,West,262,4.0,4.0,60,0.00,OVC,FEW,0.00,0.0,WeatherDisplay:10.37,2013-06-19 16:57:00,
2013-06-19 19:02:00,82.2,66.4,30.00,West,264,3.5,3.5,59,0.00,OVC,FEW,0.00,0.0,WeatherDisplay:10.37,2013-06-19 17:02:00,
2013-06-19 19:07:00,81.5,65.8,30.00,West,264,3.5,3.5,59,0.00,OVC,FEW,0.00,0.0,WeatherDisplay:10.37,2013-06-19 17:07:00,
2013-06-19 19:12:00,81.7,67.4,30.00,West,264,2.3,2.3,62,0.00,OVC,FEW,0.00,0.0,WeatherDisplay:10.37,2013-06-19 17:12:00,
2013-06-19 19:17:00,81.7,66.9,30.00,West,264,1.2,0.0,61,0.00,OVC,FEW,0.00,0.0,WeatherDisplay:10.37,2013-06-19 17:17:00,
2013-06-19 19:22:00,82.2,67.4,30.00,West,264,2.0,2.0,61,0.00,OVC,FEW,0.00,0.0,WeatherDisplay:10.37,2013-06-19 17:22:00,
2013-06-19 19:27:00,82.0,68.6,30.00,West,264,2.3,2.3,64,0.00,OVC,FEW,0.00,0.0,WeatherDisplay:10.37,2013-06-19 17:27:00,
2013-06-19 19:32:00,81.0,67.7,30.00,West,264,1.2,1.2,64,0.00,OVC,FEW,0.00,0.0,WeatherDisplay:10.37,2013-06-19 17:32:00,
2013-06-19 19:37:00,80.6,65.4,30.00,West,264,1.2,1.2,60,0.00,OVC,FEW,0.00,0.0,WeatherDisplay:10.37,2013-06-19 17:37:00,
2013-06-19 19:42:00,80.1,64.5,30.00,West,264,0.0,0.0,59,0.00,OVC,FEW,0.00,0.0,WeatherDisplay:10.37,2013-06-19 17:42:00,
2013-06-19 19:47:00,80.0,63.9,30.00,West,264,1.2,0.0,58,0.00,OVC,FEW,0.00,0.0,WeatherDisplay:10.37,2013-06-19 17:47:00,
2013-06-19 19:52:00,80.0,64.4,30.00,West,264,0.0,0.0,59,0.00,OVC,FEW,0.00,0.0,WeatherDisplay:10.37,2013-06-19 17:52:00,
2013-06-19 19:57:00,79.7,64.1,30.00,West,264,1.2,1.2,59,0.00,OVC,FEW,0.00,0.0,WeatherDisplay:10.37,2013-06-19 17:57:00,
2013-06-19 20:02:00,79.4,64.8,30.00,West,264,0.0,0.0,61,0.00,OVC,FEW,0.00,0.0,WeatherDisplay:10.37,2013-06-19 18:02:00,
2013-06-19 20:07:00,79.2,64.1,30.00,West,264,1.2,1.2,60,0.00,OVC,FEW,0.00,0.0,WeatherDisplay:10.37,2013-06-19 18:07:00,
2013-06-19 20:12:00,78.7,64.1,30.00,West,264,1.2,0.0,61,0.00,OVC,FEW,0.00,0.0,WeatherDisplay:10.37,2013-06-19 18:12:00,
2013-06-19 20:17:00,78.3,64.2,30.00,West,264,1.2,1.2,62,0.00,OVC,FEW,0.00,0.0,WeatherDisplay:10.37,2013-06-19 18:17:00,
2013-06-19 20:22:00,77.8,64.6,30.00,West,264,1.2,1.2,64,0.00,OVC,FEW,0.00,0.0,WeatherDisplay:10.37,2013-06-19 18:22:00,
2013-06-19 20:27:00,77.3,64.6,30.00,West,264,0.0,0.1,65,0.00,OVC,FEW,0.00,0.0,WeatherDisplay:10.37,2013-06-19 18:27:00,
2013-06-19 20:32:00,76.9,64.7,30.00,West,264,1.2,1.2,66,0.00,OVC,FEW,0.00,0.0,WeatherDisplay:10.37,2013-06-19 18:32:00,
2013-06-19 20:37:00,76.7,64.9,30.00,West,264,1.2,1.2,67,0.00,OVC,FEW,0.00,0.0,WeatherDisplay:10.37,2013-06-19 18:37:00,
2013-06-19 20:42:00,76.5,65.1,30.00,West,264,2.3,2.3,68,0.00,OVC,FEW,0.00,0.0,WeatherDisplay:10.37,2013-06-19 18:42:00,
2013-06-19 20:47:00,76.6,65.2,30.00,West,264,3.5,3.5,68,0.00,OVC,FEW,0.00,0.0,WeatherDisplay:10.37,2013-06-19 18:47:00,
2013-06-19 20:52:00,76.6,64.8,30.00,West,264,2.3,2.3,67,0.00,OVC,FEW,0.00,0.0,WeatherDisplay:10.37,2013-06-19 18:52:00,
2013-06-19 20:57:00,76.5,65.1,30.00,West,264,2.3,2.3,68,0.00,OVC,FEW,0.00,0.0,WeatherDisplay:10.37,2013-06-19 18:57:00,
2013-06-19 21:37:00,75.8,61.8,30.02,West,264,3.0,3.0,62,0.00,CLR,FEW,0.00,0.0,WeatherDisplay:10.37,2013-06-19 19:37:00,
2013-06-19 21:42:00,75.7,62.2,30.02,West,264,3.5,3.5,63,0.00,CLR,FEW,0.00,0.0,WeatherDisplay:10.37,2013-06-19 19:42:00,
2013-06-19 21:47:00,75.6,62.6,30.02,West,264,3.5,3.5,64,0.00,CLR,FEW,0.00,0.0,WeatherDisplay:10.37,2013-06-19 19:47:00,
2013-06-19 21:53:00,75.7,62.7,30.02,West,264,2.3,2.3,64,0.00,CLR,FEW,0.00,0.0,WeatherDisplay:10.37,2013-06-19 19:53:00,
2013-06-19 21:58:00,75.5,62.9,30.02,West,264,1.2,0.0,65,0.00,CLR,FEW,0.00,0.0,WeatherDisplay:10.37,2013-06-19 19:58:00,
2013-06-19 22:03:00,75.5,62.9,30.02,West,264,3.5,3.5,65,0.00,CLR,FEW,0.00,0.0,WeatherDisplay:10.37,2013-06-19 20:03:00,
2013-06-19 22:08:00,75.4,62.8,30.02,West,264,1.2,0.0,65,0.00,CLR,FEW,0.00,0.0,WeatherDisplay:10.37,2013-06-19 20:08:00,
2013-06-19 22:13:00,75.5,62.9,30.02,West,264,0.0,0.0,65,0.00,CLR,FEW,0.00,0.0,WeatherDisplay:10.37,2013-06-19 20:13:00,
2013-06-19 22:18:00,75.8,62.3,30.02,West,264,2.3,2.3,63,0.00,CLR,FEW,0.00,0.0,WeatherDisplay:10.37,2013-06-19 20:18:00,
2013-06-19 22:23:00,75.6,62.1,30.02,West,264,3.5,3.5,63,0.00,CLR,FEW,0.00,0.0,WeatherDisplay:10.37,2013-06-19 20:23:00,
2013-06-19 22:28:00,75.3,62.3,30.02,West,264,2.3,2.3,64,0.00,CLR,FEW,0.00,0.0,WeatherDisplay:10.37,2013-06-19 20:28:00,
2013-06-19 22:33:00,75.0,62.4,30.02,West,264,2.3,2.3,65,0.00,CLR,FEW,0.00,0.0,WeatherDisplay:10.37,2013-06-19 20:33:00,
2013-06-19 22:38:00,74.8,61.8,30.02,West,264,3.5,3.5,64,0.00,CLR,FEW,0.00,0.0,WeatherDisplay:10.37,2013-06-19 20:38:00,
2013-06-19 22:44:00,76.1,63.5,30.02,West,264,2.3,2.3,65,0.00,CLR,FEW,0.00,0.0,WeatherDisplay:10.37,2013-06-19 20:44:00,
2013-06-19 22:49:00,77.3,64.2,30.02,West,264,2.3,2.3,64,0.00,CLR,FEW,0.00,0.0,WeatherDisplay:10.37,2013-06-19 20:49:00,
2013-06-19 22:55:00,78.0,64.4,30.02,West,264,2.3,2.3,63,0.00,CLR,FEW,0.00,0.0,WeatherDisplay:10.37,2013-06-19 20:55:00,
2013-06-19 23:00:00,77.9,64.3,30.02,West,264,2.3,2.3,63,0.00,CLR,FEW,0.00,0.0,WeatherDisplay:10.37,2013-06-19 21:00:00,
2013-06-19 23:05:00,77.6,64.5,30.02,West,264,0.0,0.0,64,0.00,CLR,FEW,0.00,0.0,WeatherDisplay:10.37,2013-06-19 21:05:00,
2013-06-19 23:10:00,77.1,64.4,30.02,West,264,1.2,0.0,65,0.00,CLR,FEW,0.00,0.0,WeatherDisplay:10.37,2013-06-19 21:10:00,
2013-06-19 23:15:00,76.1,63.5,30.02,West,264,1.2,1.2,65,0.00,CLR,FEW,0.00,0.0,WeatherDisplay:10.37,2013-06-19 21:15:00,
2013-06-19 23:20:00,75.7,63.1,30.02,West,264,1.2,1.2,65,0.00,CLR,FEW,0.00,0.0,WeatherDisplay:10.37,2013-06-19 21:20:00,
2013-06-19 23:25:00,75.9,63.3,30.02,West,262,4.0,4.0,65,0.00,CLR,FEW,0.00,0.0,WeatherDisplay:10.37,2013-06-19 21:25:00,
2013-06-19 23:30:00,76.4,63.8,30.02,East,95,2.3,2.3,65,0.00,CLR,FEW,0.00,0.0,WeatherDisplay:10.37,2013-06-19 21:30:00,
2013-06-19 23:36:00,76.8,63.7,30.02,ESE,103,4.6,4.6,64,0.00,CLR,FEW,0.00,0.0,WeatherDisplay:10.37,2013-06-19 21:36:00,
2013-06-19 23:41:00,77.1,64.0,30.02,ESE,103,3.5,3.5,64,0.00,CLR,FEW,0.00,0.0,WeatherDisplay:10.37,2013-06-19 21:41:00,
2013-06-19 23:46:00,77.7,64.5,30.01,ESE,103,4.6,4.6,64,0.00,CLR,FEW,0.00,0.0,WeatherDisplay:10.37,2013-06-19 21:46:00,
2013-06-19 23:52:00,78.1,65.4,30.01,ESE,107,5.8,5.8,65,0.00,CLR,FEW,0.00,0.0,WeatherDisplay:10.37,2013-06-19 21:52:00,
2013-06-19 23:57:00,78.3,66.0,30.01,ESE,102,3.5,3.5,66,0.00,CLR,FEW,0.00,0.0,WeatherDisplay:10.37,2013-06-19 21:57:00,